Time,TemperatureF,DewpointF,PressureIn,WindDirection,WindDirectionDegrees,WindSpeedMPH,WindSpeedGustMPH,Humidity,HourlyPrecipIn,Conditions,Clouds,dailyrainin,SoftwareType,DateUTC
2013-01-18 00:05:00,14.1,7.9,30.26,SSE,151,3.0,3.0,76,0.00,,,0.00,Wunderground v.1.15,2013-01-18 06:05:00,
2013-01-18 00:10:00,14.1,7.9,30.26,SSE,168,3.0,4.0,76,0.00,,,0.00,Wunderground v.1.15,2013-01-18 06:10:00,
2013-01-18 00:15:00,14.1,7.9,30.24,SSE,161,4.0,4.0,76,0.00,,,0.00,Wunderground v.1.15,2013-01-18 06:15:00,
2013-01-18 00:25:00,14.3,8.1,30.24,SE,134,3.0,4.0,76,0.00,,,0.00,Wunderground v.1.15,2013-01-18 06:25:00,
2013-01-18 00:30:00,14.3,8.1,30.22,SSE,154,2.0,2.0,76,0.00,,,0.00,Wunderground v.1.15,2013-01-18 06:30:00,
2013-01-18 00:35:00,14.3,8.4,30.22,SSE,152,2.0,4.0,77,0.00,,,0.00,Wunderground v.1.15,2013-01-18 06:35:00,
2013-01-18 00:40:00,14.4,8.5,30.22,SSE,158,3.0,6.0,77,0.00,,,0.00,Wunderground v.1.15,2013-01-18 06:40:00,
2013-01-18 00:50:00,14.6,9.0,30.20,SSE,168,4.0,4.0,78,0.00,,,0.00,Wunderground v.1.15,2013-01-18 06:50:00,
2013-01-18 00:55:00,14.6,8.7,30.20,SE,128,4.0,4.0,77,0.00,,,0.00,Wunderground v.1.15,2013-01-18 06:55:00,
2013-01-18 01:00:00,14.8,8.9,30.18,South,172,4.0,4.0,77,0.00,,,0.00,Wunderground v.1.15,2013-01-18 07:00:00,
2013-01-18 01:10:00,14.9,9.0,30.18,SSE,148,4.0,4.0,77,0.00,,,0.00,Wunderground v.1.15,2013-01-18 07:10:00,
2013-01-18 01:15:00,15.1,9.2,30.16,SSE,168,4.0,4.0,77,0.00,,,0.00,Wunderground v.1.15,2013-01-18 07:15:00,
2013-01-18 01:20:00,15.2,9.0,30.16,SSE,165,6.0,9.0,76,0.00,,,0.00,Wunderground v.1.15,2013-01-18 07:20:00,
2013-01-18 01:30:00,15.7,9.2,30.15,SSE,150,7.0,17.0,75,0.00,,,0.00,Wunderground v.1.15,2013-01-18 07:30:00,
2013-01-18 01:35:00,15.9,9.1,30.15,SE,144,6.0,17.0,74,0.00,,,0.00,Wunderground v.1.15,2013-01-18 07:35:00,
2013-01-18 01:40:00,16.1,9.3,30.15,SSE,167,6.0,6.0,74,0.00,,,0.00,Wunderground v.1.15,2013-01-18 07:40:00,
2013-01-18 01:45:00,16.1,9.0,30.14,SE,143,5.0,6.0,73,0.00,,,0.00,Wunderground v.1.15,2013-01-18 07:45:00,
2013-01-18 01:55:00,16.4,8.6,30.14,SSE,147,6.0,7.0,71,0.00,,,0.00,Wunderground v.1.15,2013-01-18 07:55:00,
2013-01-18 02:05:00,16.5,8.7,30.13,SSE,150,6.0,10.0,71,0.00,,,0.00,Wunderground v.1.15,2013-01-18 08:05:00,
2013-01-18 02:15:00,16.7,8.3,30.11,ESE,120,7.0,10.0,69,0.00,,,0.00,Wunderground v.1.15,2013-01-18 08:15:00,
2013-01-18 02:20:00,16.9,8.5,30.11,East,100,5.0,6.0,69,0.00,,,0.00,Wunderground v.1.15,2013-01-18 08:20:00,
2013-01-18 02:25:00,16.9,8.5,30.11,SSE,151,3.0,6.0,69,0.00,,,0.00,Wunderground v.1.15,2013-01-18 08:25:00,
2013-01-18 02:30:00,16.9,8.5,30.11,SE,145,2.0,2.0,69,0.00,,,0.00,Wunderground v.1.15,2013-01-18 08:30:00,
2013-01-18 02:35:00,17.0,8.6,30.11,SE,145,2.0,6.0,69,0.00,,,0.00,Wunderground v.1.15,2013-01-18 08:35:00,
2013-01-18 02:40:00,17.0,8.9,30.11,SSE,165,4.0,4.0,70,0.00,,,0.00,Wunderground v.1.15,2013-01-18 08:40:00,
2013-01-18 02:50:00,17.0,8.9,30.11,SSE,165,5.0,7.0,70,0.00,,,0.00,Wunderground v.1.15,2013-01-18 08:50:00,
2013-01-18 02:55:00,17.0,9.2,30.11,SSE,150,4.0,7.0,71,0.00,,,0.00,Wunderground v.1.15,2013-01-18 08:55:00,
2013-01-18 03:00:00,17.0,9.2,30.09,SSE,165,5.0,5.0,71,0.00,,,0.00,Wunderground v.1.15,2013-01-18 09:00:00,
2013-01-18 03:10:00,17.0,9.5,30.09,SSE,152,4.0,4.0,72,0.00,,,0.00,Wunderground v.1.15,2013-01-18 09:10:00,
2013-01-18 03:15:00,17.0,9.8,30.10,SSE,154,4.0,4.0,73,0.00,,,0.00,Wunderground v.1.15,2013-01-18 09:15:00,
2013-01-18 03:20:00,16.9,9.7,30.10,ESE,112,3.0,3.0,73,0.00,,,0.00,Wunderground v.1.15,2013-01-18 09:20:00,
2013-01-18 03:25:00,16.9,10.0,30.10,SE,131,3.0,3.0,74,0.00,,,0.00,Wunderground v.1.15,2013-01-18 09:25:00,
2013-01-18 03:35:00,17.0,10.1,30.09,SE,136,2.0,6.0,74,0.00,,,0.00,Wunderground v.1.15,2013-01-18 09:35:00,
2013-01-18 03:40:00,17.0,10.4,30.09,SSE,157,3.0,3.0,75,0.00,,,0.00,Wunderground v.1.15,2013-01-18 09:40:00,
2013-01-18 03:45:00,17.2,10.6,30.08,ESE,113,3.0,3.0,75,0.00,,,0.00,Wunderground v.1.15,2013-01-18 09:45:00,
2013-01-18 03:55:00,17.2,10.9,30.08,SSE,154,4.0,7.0,76,0.00,,,0.00,Wunderground v.1.15,2013-01-18 09:55:00,
2013-01-18 04:00:00,17.3,11.0,30.05,SSE,158,5.0,11.0,76,0.00,,,0.00,Wunderground v.1.15,2013-01-18 10:00:00,
2013-01-18 04:05:00,17.3,11.0,30.05,SSE,147,7.0,11.0,76,0.00,,,0.00,Wunderground v.1.15,2013-01-18 10:05:00,
2013-01-18 04:15:00,17.3,11.3,30.03,SE,134,6.0,8.0,77,0.00,,,0.00,Wunderground v.1.15,2013-01-18 10:15:00,
2013-01-18 04:20:00,17.5,11.5,30.03,SSE,160,7.0,11.0,77,0.00,,,0.00,Wunderground v.1.15,2013-01-18 10:20:00,
2013-01-18 04:25:00,17.7,12.0,30.03,ESE,102,7.0,11.0,78,0.00,,,0.00,Wunderground v.1.15,2013-01-18 10:25:00,
2013-01-18 04:30:00,17.8,12.1,30.01,SSE,148,7.0,7.0,78,0.00,,,0.00,Wunderground v.1.15,2013-01-18 10:30:00,
2013-01-18 04:35:00,18.0,12.3,30.01,SSE,162,7.0,11.0,78,0.00,,,0.00,Wunderground v.1.15,2013-01-18 10:35:00,
2013-01-18 04:40:00,18.1,12.4,30.01,SSE,162,7.0,7.0,78,0.00,,,0.00,Wunderground v.1.15,2013-01-18 10:40:00,
2013-01-18 04:45:00,18.4,12.7,30.00,SSE,160,7.0,14.0,78,0.00,,,0.00,Wunderground v.1.15,2013-01-18 10:45:00,
2013-01-18 04:55:00,18.8,13.1,30.00,SSE,152,7.0,8.0,78,0.00,,,0.00,Wunderground v.1.15,2013-01-18 10:55:00,
2013-01-18 05:00:00,18.8,13.4,29.98,SSE,148,5.0,10.0,79,0.00,,,0.00,Wunderground v.1.15,2013-01-18 11:00:00,
2013-01-18 05:10:00,19.2,13.8,29.98,SSE,151,7.0,7.0,79,0.00,,,0.00,Wunderground v.1.15,2013-01-18 11:10:00,
2013-01-18 05:15:00,19.5,14.3,29.97,South,169,6.0,7.0,80,0.00,,,0.00,Wunderground v.1.15,2013-01-18 11:15:00,
2013-01-18 05:20:00,19.9,14.7,29.97,South,186,7.0,7.0,80,0.00,,,0.00,Wunderground v.1.15,2013-01-18 11:20:00,
2013-01-18 05:25:00,20.0,15.1,29.97,SSE,155,7.0,11.0,81,0.00,,,0.00,Wunderground v.1.15,2013-01-18 11:25:00,
2013-01-18 05:35:00,20.5,15.9,29.95,SSE,168,7.0,14.0,82,0.00,,,0.00,Wunderground v.1.15,2013-01-18 11:35:00,
2013-01-18 05:40:00,20.6,16.0,29.95,SE,145,7.0,10.0,82,0.00,,,0.00,Wunderground v.1.15,2013-01-18 11:40:00,
2013-01-18 05:45:00,20.8,16.5,29.94,SSE,165,8.0,10.0,83,0.00,,,0.00,Wunderground v.1.15,2013-01-18 11:45:00,
2013-01-18 05:50:00,21.0,16.6,29.94,SSE,168,8.0,8.0,83,0.00,,,0.00,Wunderground v.1.15,2013-01-18 11:50:00,
2013-01-18 05:55:00,21.1,17.0,29.94,South,174,8.0,11.0,84,0.00,,,0.00,Wunderground v.1.15,2013-01-18 11:55:00,
2013-01-18 06:00:00,21.3,17.2,29.93,SSE,167,7.0,9.0,84,0.00,,,0.00,Wunderground v.1.15,2013-01-18 12:00:00,
2013-01-18 06:10:00,21.6,17.8,29.93,South,179,6.0,6.0,85,0.00,,,0.00,Wunderground v.1.15,2013-01-18 12:10:00,
2013-01-18 06:20:00,21.9,18.1,29.91,SSE,165,5.0,13.0,85,0.00,,,0.00,Wunderground v.1.15,2013-01-18 12:20:00,
2013-01-18 06:25:00,22.1,18.6,29.91,South,179,5.0,13.0,86,0.00,,,0.00,Wunderground v.1.15,2013-01-18 12:25:00,
2013-01-18 06:30:00,22.1,18.6,29.90,South,174,6.0,6.0,86,0.00,,,0.00,Wunderground v.1.15,2013-01-18 12:30:00,
2013-01-18 06:35:00,22.1,18.6,29.90,South,172,6.0,6.0,86,0.00,,,0.00,Wunderground v.1.15,2013-01-18 12:35:00,
2013-01-18 06:40:00,22.2,18.7,29.90,SSE,167,6.0,6.0,86,0.00,,,0.00,Wunderground v.1.15,2013-01-18 12:40:00,
2013-01-18 06:45:00,22.2,18.9,29.89,SSE,164,6.0,6.0,87,0.00,,,0.00,Wunderground v.1.15,2013-01-18 12:45:00,
2013-01-18 06:55:00,22.4,19.1,29.89,South,176,5.0,5.0,87,0.00,,,0.00,Wunderground v.1.15,2013-01-18 12:55:00,
2013-01-18 07:00:00,22.7,19.4,29.88,South,176,5.0,5.0,87,0.00,,,0.00,Wunderground v.1.15,2013-01-18 13:00:00,
2013-01-18 07:10:00,23.0,20.0,29.88,South,185,4.0,6.0,88,0.00,,,0.00,Wunderground v.1.15,2013-01-18 13:10:00,
2013-01-18 07:15:00,23.2,20.2,29.87,SSE,154,5.0,6.0,88,0.00,,,0.00,Wunderground v.1.15,2013-01-18 13:15:00,
2013-01-18 07:20:00,23.2,20.2,29.87,SSE,168,5.0,8.0,88,0.00,,,0.00,Wunderground v.1.15,2013-01-18 13:20:00,
2013-01-18 07:25:00,23.3,20.3,29.87,South,169,4.0,8.0,88,0.00,,,0.00,Wunderground v.1.15,2013-01-18 13:25:00,
2013-01-18 07:30:00,23.5,20.7,29.86,SSE,168,4.0,8.0,89,0.00,,,0.00,Wunderground v.1.15,2013-01-18 13:30:00,
2013-01-18 07:40:00,23.6,20.8,29.86,South,175,4.0,4.0,89,0.00,,,0.00,Wunderground v.1.15,2013-01-18 13:40:00,
2013-01-18 07:45:00,23.8,21.0,29.84,South,178,5.0,5.0,89,0.00,,,0.00,Wunderground v.1.15,2013-01-18 13:45:00,
2013-01-18 07:55:00,24.1,21.6,29.84,SSE,162,4.0,6.0,90,0.00,,,0.00,Wunderground v.1.15,2013-01-18 13:55:00,
2013-01-18 08:00:00,24.1,21.6,29.85,South,182,3.0,3.0,90,0.00,,,0.00,Wunderground v.1.15,2013-01-18 14:00:00,
2013-01-18 08:05:00,24.2,21.7,29.85,South,174,2.0,3.0,90,0.00,,,0.00,Wunderground v.1.15,2013-01-18 14:05:00,
2013-01-18 08:10:00,24.2,21.7,29.85,South,179,3.0,4.0,90,0.00,,,0.00,Wunderground v.1.15,2013-01-18 14:10:00,
2013-01-18 08:20:00,24.4,21.9,29.83,South,172,3.0,3.0,90,0.00,,,0.00,Wunderground v.1.15,2013-01-18 14:20:00,
2013-01-18 08:25:00,24.4,21.9,29.83,South,175,2.0,3.0,90,0.00,,,0.00,Wunderground v.1.15,2013-01-18 14:25:00,
2013-01-18 08:30:00,24.8,22.3,29.83,South,179,2.0,2.0,90,0.00,,,0.00,Wunderground v.1.15,2013-01-18 14:30:00,
2013-01-18 08:40:00,25.3,22.8,29.83,SSW,198,1.0,1.0,90,0.00,,,0.00,Wunderground v.1.15,2013-01-18 14:40:00,
2013-01-18 08:50:00,25.4,22.9,29.83,South,181,2.0,2.0,90,0.00,,,0.00,Wunderground v.1.15,2013-01-18 14:50:00,
2013-01-18 08:55:00,25.7,23.2,29.83,South,176,2.0,2.0,90,0.00,,,0.00,Wunderground v.1.15,2013-01-18 14:55:00,
2013-01-18 09:05:00,25.8,23.0,29.83,SSW,193,1.0,2.0,89,0.00,,,0.00,Wunderground v.1.15,2013-01-18 15:05:00,
2013-01-18 09:10:00,26.0,23.2,29.83,South,178,1.0,1.0,89,0.00,,,0.00,Wunderground v.1.15,2013-01-18 15:10:00,
2013-01-18 09:15:00,26.3,23.5,29.83,South,178,1.0,1.0,89,0.00,,,0.00,Wunderground v.1.15,2013-01-18 15:15:00,
2013-01-18 09:20:00,26.6,23.5,29.83,SW,215,1.0,6.0,88,0.00,,,0.00,Wunderground v.1.15,2013-01-18 15:20:00,
2013-01-18 09:25:00,26.9,23.8,29.83,SSW,208,2.0,6.0,88,0.00,,,0.00,Wunderground v.1.15,2013-01-18 15:25:00,
2013-01-18 09:35:00,27.5,24.1,29.82,SW,217,2.0,2.0,87,0.00,,,0.00,Wunderground v.1.15,2013-01-18 15:35:00,
2013-01-18 09:45:00,28.4,24.5,29.82,SSW,210,3.0,4.0,85,0.00,,,0.00,Wunderground v.1.15,2013-01-18 15:45:00,
2013-01-18 09:50:00,28.8,24.6,29.82,SW,220,4.0,7.0,84,0.00,,,0.00,Wunderground v.1.15,2013-01-18 15:50:00,
2013-01-18 09:55:00,29.4,24.9,29.82,SW,216,5.0,7.0,83,0.00,,,0.00,Wunderground v.1.15,2013-01-18 15:55:00,
2013-01-18 10:00:00,29.8,25.0,29.81,SW,219,5.0,7.0,82,0.00,,,0.00,Wunderground v.1.15,2013-01-18 16:00:00,
2013-01-18 10:05:00,30.4,25.3,29.81,SW,217,5.0,7.0,81,0.00,,,0.00,Wunderground v.1.15,2013-01-18 16:05:00,
2013-01-18 10:10:00,30.9,25.2,29.81,SW,222,5.0,8.0,79,0.00,,,0.00,Wunderground v.1.15,2013-01-18 16:10:00,
2013-01-18 10:15:00,31.3,25.2,29.80,SW,223,6.0,9.0,78,0.00,,,0.00,Wunderground v.1.15,2013-01-18 16:15:00,
2013-01-18 10:25:00,32.1,25.7,29.80,SW,229,6.0,7.0,77,0.00,,,0.00,Wunderground v.1.15,2013-01-18 16:25:00,
2013-01-18 10:30:00,32.4,25.7,29.80,SW,226,6.0,6.0,76,0.00,,,0.00,Wunderground v.1.15,2013-01-18 16:30:00,
2013-01-18 10:40:00,33.2,25.8,29.80,SW,233,7.0,7.0,74,0.00,,,0.00,Wunderground v.1.15,2013-01-18 16:40:00,
2013-01-18 10:45:00,33.5,25.8,29.79,SW,223,7.0,7.0,73,0.00,,,0.00,Wunderground v.1.15,2013-01-18 16:45:00,
2013-01-18 10:50:00,33.7,25.6,29.79,SW,232,7.0,7.0,72,0.00,,,0.00,Wunderground v.1.15,2013-01-18 16:50:00,
2013-01-18 10:55:00,34.0,25.9,29.79,WSW,241,6.0,9.0,72,0.00,,,0.00,Wunderground v.1.15,2013-01-18 16:55:00,
2013-01-18 11:05:00,34.3,25.9,29.78,WSW,240,6.0,6.0,71,0.00,,,0.00,Wunderground v.1.15,2013-01-18 17:05:00,
2013-01-18 11:10:00,34.6,25.8,29.78,WSW,251,6.0,9.0,70,0.00,,,0.00,Wunderground v.1.15,2013-01-18 17:10:00,
2013-01-18 11:15:00,34.7,25.9,29.78,WSW,239,5.0,9.0,70,0.00,,,0.00,Wunderground v.1.15,2013-01-18 17:15:00,
2013-01-18 11:20:00,34.4,25.6,29.78,WSW,240,6.0,6.0,70,0.00,,,0.00,Wunderground v.1.15,2013-01-18 17:20:00,
2013-01-18 11:25:00,34.4,25.6,29.78,WSW,241,7.0,9.0,70,0.00,,,0.00,Wunderground v.1.15,2013-01-18 17:25:00,
2013-01-18 11:30:00,34.4,25.6,29.76,West,263,6.0,6.0,70,0.00,,,0.00,Wunderground v.1.15,2013-01-18 17:30:00,
2013-01-18 11:40:00,34.3,25.5,29.76,WSW,258,7.0,7.0,70,0.00,,,0.00,Wunderground v.1.15,2013-01-18 17:40:00,
2013-01-18 11:50:00,34.3,25.5,29.76,WSW,251,4.0,7.0,70,0.00,,,0.00,Wunderground v.1.15,2013-01-18 17:50:00,
2013-01-18 11:55:00,34.1,25.7,29.76,WSW,246,5.0,7.0,71,0.00,,,0.00,Wunderground v.1.15,2013-01-18 17:55:00,
2013-01-18 12:00:00,34.3,25.9,29.76,WSW,253,5.0,5.0,71,0.00,,,0.00,Wunderground v.1.15,2013-01-18 18:00:00,
2013-01-18 12:05:00,34.3,25.9,29.76,SW,230,4.0,5.0,71,0.00,,,0.00,Wunderground v.1.15,2013-01-18 18:05:00,
2013-01-18 12:15:00,34.3,25.9,29.75,WSW,248,3.0,6.0,71,0.00,,,0.00,Wunderground v.1.15,2013-01-18 18:15:00,
2013-01-18 12:25:00,34.6,25.8,29.75,West,264,2.0,3.0,70,0.00,,,0.00,Wunderground v.1.15,2013-01-18 18:25:00,
2013-01-18 12:30:00,34.9,26.1,29.74,West,270,2.0,2.0,70,0.00,,,0.00,Wunderground v.1.15,2013-01-18 18:30:00,
2013-01-18 12:40:00,35.0,25.9,29.74,SW,236,2.0,4.0,69,0.00,,,0.00,Wunderground v.1.15,2013-01-18 18:40:00,
2013-01-18 12:45:00,35.2,26.0,29.73,WSW,254,3.0,4.0,69,0.00,,,0.00,Wunderground v.1.15,2013-01-18 18:45:00,
2013-01-18 12:50:00,35.3,26.5,29.73,West,268,4.0,4.0,70,0.00,,,0.00,Wunderground v.1.15,2013-01-18 18:50:00,
2013-01-18 12:55:00,35.3,26.5,29.73,West,268,3.0,4.0,70,0.00,,,0.00,Wunderground v.1.15,2013-01-18 18:55:00,
2013-01-18 13:00:00,35.5,26.0,29.73,West,281,3.0,4.0,68,0.00,,,0.00,Wunderground v.1.15,2013-01-18 19:00:00,
2013-01-18 13:10:00,35.2,26.0,29.73,West,261,4.0,4.0,69,0.00,,,0.00,Wunderground v.1.15,2013-01-18 19:10:00,
2013-01-18 13:15:00,35.2,26.4,29.74,NW,309,5.0,7.0,70,0.00,,,0.00,Wunderground v.1.15,2013-01-18 19:15:00,
2013-01-18 13:25:00,35.2,26.4,29.74,WNW,289,4.0,8.0,70,0.00,,,0.00,Wunderground v.1.15,2013-01-18 19:25:00,
2013-01-18 13:30:00,35.2,26.4,29.74,West,278,3.0,7.0,70,0.00,,,0.00,Wunderground v.1.15,2013-01-18 19:30:00,
2013-01-18 13:35:00,35.2,26.4,29.74,West,281,3.0,7.0,70,0.00,,,0.00,Wunderground v.1.15,2013-01-18 19:35:00,
2013-01-18 13:40:00,35.0,26.2,29.74,West,271,4.0,6.0,70,0.00,,,0.00,Wunderground v.1.15,2013-01-18 19:40:00,
2013-01-18 13:50:00,35.0,26.2,29.73,WNW,292,4.0,4.0,70,0.00,,,0.00,Wunderground v.1.15,2013-01-18 19:50:00,
2013-01-18 13:55:00,35.2,26.4,29.73,WNW,296,4.0,4.0,70,0.00,,,0.00,Wunderground v.1.15,2013-01-18 19:55:00,
2013-01-18 14:00:00,35.2,26.4,29.73,WSW,258,3.0,3.0,70,0.00,,,0.00,Wunderground v.1.15,2013-01-18 20:00:00,
2013-01-18 14:10:00,35.2,26.4,29.73,West,271,3.0,3.0,70,0.00,,,0.00,Wunderground v.1.15,2013-01-18 20:10:00,
2013-01-18 14:15:00,35.2,26.4,29.73,West,271,2.0,3.0,70,0.00,,,0.00,Wunderground v.1.15,2013-01-18 20:15:00,
2013-01-18 14:20:00,35.2,26.4,29.73,West,270,2.0,2.0,70,0.00,,,0.00,Wunderground v.1.15,2013-01-18 20:20:00,
2013-01-18 14:25:00,35.0,26.5,29.73,WNW,296,2.0,2.0,71,0.00,,,0.00,Wunderground v.1.15,2013-01-18 20:25:00,
2013-01-18 14:35:00,34.6,26.5,29.73,West,271,3.0,4.0,72,0.00,,,0.00,Wunderground v.1.15,2013-01-18 20:35:00,
2013-01-18 14:40:00,35.0,26.5,29.73,West,267,3.0,3.0,71,0.00,,,0.00,Wunderground v.1.15,2013-01-18 20:40:00,
2013-01-18 14:45:00,35.5,26.7,29.74,WSW,239,4.0,4.0,70,0.00,,,0.00,Wunderground v.1.15,2013-01-18 20:45:00,
2013-01-18 14:55:00,36.0,27.2,29.74,West,272,4.0,4.0,70,0.00,,,0.00,Wunderground v.1.15,2013-01-18 20:55:00,
2013-01-18 15:00:00,36.3,27.1,29.74,West,280,3.0,7.0,69,0.00,,,0.00,Wunderground v.1.15,2013-01-18 21:00:00,
2013-01-18 15:05:00,36.2,27.0,29.74,West,280,3.0,7.0,69,0.00,,,0.00,Wunderground v.1.15,2013-01-18 21:05:00,
2013-01-18 15:15:00,35.8,27.3,29.74,WNW,288,2.0,3.0,71,0.00,,,0.00,Wunderground v.1.15,2013-01-18 21:15:00,
2013-01-18 15:20:00,35.6,27.1,29.74,NW,305,2.0,2.0,71,0.00,,,0.00,Wunderground v.1.15,2013-01-18 21:20:00,
2013-01-18 15:25:00,36.2,27.4,29.74,WNW,301,2.0,2.0,70,0.00,,,0.00,Wunderground v.1.15,2013-01-18 21:25:00,
2013-01-18 15:30:00,36.6,27.4,29.74,NNW,344,2.0,2.0,69,0.00,,,0.00,Wunderground v.1.15,2013-01-18 21:30:00,
2013-01-18 15:40:00,36.9,27.3,29.74,WNW,288,3.0,3.0,68,0.00,,,0.00,Wunderground v.1.15,2013-01-18 21:40:00,
2013-01-18 15:45:00,36.6,27.4,29.74,NW,308,3.0,3.0,69,0.00,,,0.00,Wunderground v.1.15,2013-01-18 21:45:00,
2013-01-18 15:50:00,36.3,27.4,29.74,NW,304,3.0,3.0,70,0.00,,,0.00,Wunderground v.1.15,2013-01-18 21:50:00,
2013-01-18 15:55:00,36.2,27.7,29.74,WNW,289,3.0,3.0,71,0.00,,,0.00,Wunderground v.1.15,2013-01-18 21:55:00,
2013-01-18 16:00:00,36.0,27.5,29.74,WNW,298,2.0,4.0,71,0.00,,,0.00,Wunderground v.1.15,2013-01-18 22:00:00,
2013-01-18 16:05:00,36.0,27.5,29.74,WNW,301,3.0,4.0,71,0.00,,,0.00,Wunderground v.1.15,2013-01-18 22:05:00,
2013-01-18 16:10:00,36.0,27.8,29.74,WNW,288,3.0,4.0,72,0.00,,,0.00,Wunderground v.1.15,2013-01-18 22:10:00,
2013-01-18 16:15:00,36.0,27.8,29.74,West,280,3.0,4.0,72,0.00,,,0.00,Wunderground v.1.15,2013-01-18 22:15:00,
2013-01-18 16:25:00,35.9,27.7,29.74,West,264,3.0,4.0,72,0.00,,,0.00,Wunderground v.1.15,2013-01-18 22:25:00,
2013-01-18 16:30:00,35.8,28.0,29.75,WNW,294,2.0,2.0,73,0.00,,,0.00,Wunderground v.1.15,2013-01-18 22:30:00,
2013-01-18 16:35:00,35.5,27.7,29.75,West,278,2.0,2.0,73,0.00,,,0.00,Wunderground v.1.15,2013-01-18 22:35:00,
2013-01-18 16:40:00,35.3,27.8,29.75,NW,315,2.0,2.0,74,0.00,,,0.00,Wunderground v.1.15,2013-01-18 22:40:00,
2013-01-18 16:45:00,35.0,27.5,29.76,NW,306,1.0,2.0,74,0.00,,,0.00,Wunderground v.1.15,2013-01-18 22:45:00,
2013-01-18 16:50:00,34.7,27.3,29.76,NW,308,2.0,2.0,74,0.00,,,0.00,Wunderground v.1.15,2013-01-18 22:50:00,
2013-01-18 16:55:00,34.6,27.2,29.76,NW,309,3.0,3.0,74,0.00,,,0.00,Wunderground v.1.15,2013-01-18 22:55:00,
2013-01-18 17:00:00,34.3,27.2,29.76,WNW,302,2.0,2.0,75,0.00,,,0.00,Wunderground v.1.15,2013-01-18 23:00:00,
2013-01-18 17:10:00,33.8,26.7,29.76,WNW,298,2.0,2.0,75,0.00,,,0.00,Wunderground v.1.15,2013-01-18 23:10:00,
2013-01-18 17:20:00,33.2,26.5,29.77,WNW,294,2.0,2.0,76,0.00,,,0.00,Wunderground v.1.15,2013-01-18 23:20:00,
2013-01-18 17:25:00,32.9,26.5,29.77,WNW,294,2.0,2.0,77,0.00,,,0.00,Wunderground v.1.15,2013-01-18 23:25:00,
2013-01-18 17:30:00,32.7,26.3,29.77,WNW,292,2.0,2.0,77,0.00,,,0.00,Wunderground v.1.15,2013-01-18 23:30:00,
2013-01-18 17:35:00,32.5,26.4,29.77,WNW,292,2.0,2.0,78,0.00,,,0.00,Wunderground v.1.15,2013-01-18 23:35:00,
2013-01-18 17:40:00,32.4,26.3,29.77,WNW,292,1.0,1.0,78,0.00,,,0.00,Wunderground v.1.15,2013-01-18 23:40:00,
2013-01-18 17:45:00,32.1,26.0,29.77,WNW,292,0.0,1.0,78,0.00,,,0.00,Wunderground v.1.15,2013-01-18 23:45:00,
2013-01-18 17:55:00,31.8,26.0,29.77,WNW,292,0.0,0.0,79,0.00,,,0.00,Wunderground v.1.15,2013-01-18 23:55:00,
2013-01-18 18:05:00,31.5,26.0,29.78,WNW,292,0.0,0.0,80,0.00,,,0.00,Wunderground v.1.15,2013-01-19 00:05:00,
2013-01-18 18:10:00,31.3,25.8,29.78,WNW,292,0.0,0.0,80,0.00,,,0.00,Wunderground v.1.15,2013-01-19 00:10:00,
2013-01-18 18:15:00,31.2,26.0,29.78,WNW,292,0.0,0.0,81,0.00,,,0.00,Wunderground v.1.15,2013-01-19 00:15:00,
2013-01-18 18:20:00,30.9,25.8,29.78,WNW,292,0.0,0.0,81,0.00,,,0.00,Wunderground v.1.15,2013-01-19 00:20:00,
2013-01-18 18:25:00,30.6,25.5,29.78,WNW,292,0.0,0.0,81,0.00,,,0.00,Wunderground v.1.15,2013-01-19 00:25:00,
2013-01-18 18:30:00,30.4,25.6,29.78,WNW,292,0.0,0.0,82,0.00,,,0.00,Wunderground v.1.15,2013-01-19 00:30:00,
2013-01-18 18:40:00,30.1,25.6,29.78,WNW,292,0.0,0.0,83,0.00,,,0.00,Wunderground v.1.15,2013-01-19 00:40:00,
2013-01-18 18:45:00,30.0,25.5,29.78,WNW,292,0.0,0.0,83,0.00,,,0.00,Wunderground v.1.15,2013-01-19 00:45:00,
2013-01-18 18:55:00,30.0,25.5,29.78,WNW,292,0.0,0.0,83,0.00,,,0.00,Wunderground v.1.15,2013-01-19 00:55:00,
2013-01-18 19:00:00,29.8,25.6,29.78,WNW,292,0.0,0.0,84,0.00,,,0.00,Wunderground v.1.15,2013-01-19 01:00:00,
2013-01-18 19:10:00,29.7,25.5,29.78,WNW,292,0.0,0.0,84,0.00,,,0.00,Wunderground v.1.15,2013-01-19 01:10:00,
2013-01-18 19:15:00,29.5,25.5,29.79,WNW,292,0.0,0.0,85,0.00,,,0.00,Wunderground v.1.15,2013-01-19 01:15:00,
2013-01-18 19:20:00,29.3,25.4,29.79,WNW,292,0.0,0.0,85,0.00,,,0.00,Wunderground v.1.15,2013-01-19 01:20:00,
2013-01-18 19:25:00,29.1,25.4,29.79,WNW,292,0.0,2.0,86,0.00,,,0.00,Wunderground v.1.15,2013-01-19 01:25:00,
2013-01-18 19:30:00,29.1,25.4,29.79,WNW,291,1.0,1.0,86,0.00,,,0.00,Wunderground v.1.15,2013-01-19 01:30:00,
2013-01-18 19:35:00,28.8,25.4,29.79,WNW,291,1.0,1.0,87,0.00,,,0.00,Wunderground v.1.15,2013-01-19 01:35:00,
2013-01-18 19:40:00,28.8,25.4,29.79,WNW,291,0.0,0.0,87,0.00,,,0.00,Wunderground v.1.15,2013-01-19 01:40:00,
2013-01-18 19:45:00,28.7,25.3,29.79,WNW,291,0.0,0.0,87,0.00,,,0.00,Wunderground v.1.15,2013-01-19 01:45:00,
2013-01-18 19:55:00,28.5,-99.9,29.79,WNW,291,0.0,0.0,255,0.00,,,0.00,Wunderground v.1.15,2013-01-19 01:55:00,
2013-01-18 20:05:00,28.5,25.4,29.79,WNW,291,0.0,0.0,88,0.00,,,0.00,Wunderground v.1.15,2013-01-19 02:05:00,
2013-01-18 20:10:00,28.5,25.4,29.79,WNW,291,0.0,0.0,88,0.00,,,0.00,Wunderground v.1.15,2013-01-19 02:10:00,
2013-01-18 20:20:00,28.4,25.6,29.78,WNW,291,0.0,0.0,89,0.00,,,0.00,Wunderground v.1.15,2013-01-19 02:20:00,
2013-01-18 20:30:00,28.2,25.4,29.77,WNW,291,0.0,0.0,89,0.00,,,0.00,Wunderground v.1.15,2013-01-19 02:30:00,
2013-01-18 20:40:00,28.2,25.6,29.77,West,271,0.0,1.0,90,0.00,,,0.00,Wunderground v.1.15,2013-01-19 02:40:00,
2013-01-18 20:45:00,28.2,25.6,29.76,West,270,1.0,1.0,90,0.00,,,0.00,Wunderground v.1.15,2013-01-19 02:45:00,
2013-01-18 20:55:00,28.5,25.9,29.76,West,263,3.0,3.0,90,0.00,,,0.00,Wunderground v.1.15,2013-01-19 02:55:00,
2013-01-18 21:05:00,29.1,26.5,29.77,WSW,241,1.0,6.0,90,0.00,,,0.00,Wunderground v.1.15,2013-01-19 03:05:00,
2013-01-18 21:10:00,29.3,26.7,29.77,WSW,241,1.0,1.0,90,0.00,,,0.00,Wunderground v.1.15,2013-01-19 03:10:00,
2013-01-18 21:15:00,29.5,26.7,29.76,WSW,243,2.0,2.0,89,0.00,,,0.00,Wunderground v.1.15,2013-01-19 03:15:00,
2013-01-18 21:25:00,29.8,26.7,29.76,WSW,239,3.0,4.0,88,0.00,,,0.00,Wunderground v.1.15,2013-01-19 03:25:00,
2013-01-18 21:35:00,29.7,26.3,29.76,WSW,240,3.0,6.0,87,0.00,,,0.00,Wunderground v.1.15,2013-01-19 03:35:00,
2013-01-18 21:40:00,29.5,26.1,29.76,WSW,240,2.0,2.0,87,0.00,,,0.00,Wunderground v.1.15,2013-01-19 03:40:00,
2013-01-18 21:45:00,29.3,25.9,29.77,WSW,240,0.0,2.0,87,0.00,,,0.00,Wunderground v.1.15,2013-01-19 03:45:00,
2013-01-18 21:55:00,28.2,24.8,29.77,WSW,240,0.0,0.0,87,0.00,,,0.00,Wunderground v.1.15,2013-01-19 03:55:00,
2013-01-18 22:05:00,27.9,25.1,29.77,WSW,240,0.0,0.0,89,0.00,,,0.00,Wunderground v.1.15,2013-01-19 04:05:00,
2013-01-18 22:15:00,27.8,25.0,29.76,WSW,240,0.0,0.0,89,0.00,,,0.00,Wunderground v.1.15,2013-01-19 04:15:00,
2013-01-18 22:25:00,27.6,25.1,29.76,WSW,240,0.0,0.0,90,0.00,,,0.00,Wunderground v.1.15,2013-01-19 04:25:00,
2013-01-18 22:35:00,27.5,25.0,29.76,WSW,240,0.0,0.0,90,0.00,,,0.00,Wunderground v.1.15,2013-01-19 04:35:00,
2013-01-18 22:45:00,27.5,25.0,29.75,WSW,240,0.0,0.0,90,0.00,,,0.00,Wunderground v.1.15,2013-01-19 04:45:00,
2013-01-18 22:55:00,27.3,25.0,29.75,WSW,240,0.0,0.0,91,0.00,,,0.00,Wunderground v.1.15,2013-01-19 04:55:00,
2013-01-18 23:05:00,27.2,24.9,29.75,WSW,240,0.0,0.0,91,0.00,,,0.00,Wunderground v.1.15,2013-01-19 05:05:00,
2013-01-18 23:10:00,27.0,24.7,29.75,WSW,240,0.0,0.0,91,0.00,,,0.00,Wunderground v.1.15,2013-01-19 05:10:00,
2013-01-18 23:20:00,26.9,24.6,29.75,WSW,240,0.0,0.0,91,0.00,,,0.00,Wunderground v.1.15,2013-01-19 05:20:00,
2013-01-18 23:30:00,26.9,24.9,29.75,SW,232,0.0,0.0,92,0.00,,,0.00,Wunderground v.1.15,2013-01-19 05:30:00,
2013-01-18 23:40:00,26.4,24.4,29.75,SW,230,0.0,0.0,92,0.00,,,0.00,Wunderground v.1.15,2013-01-19 05:40:00,
2013-01-18 23:45:00,26.6,24.6,29.75,SW,230,0.0,0.0,92,0.00,,,0.00,Wunderground v.1.15,2013-01-19 05:45:00,
2013-01-18 23:55:00,26.6,24.6,29.75,SW,230,0.0,0.0,92,0.00,,,0.00,Wunderground v.1.15,2013-01-19 05:55:00,